Regional Weather Roundup
Issued by NWS

Home | Current Version | Previous Version | Graphics & Text | Print | Product List | Glossary On
Versions: 1 2 3 4 5 6 7 8 9 10 11 12 13 14 15 16 17 18 19 20 21 22 23 24 25 26 27 28 29 30 31 32 33 34 35 36 37 38 39 40 41 42 43 44 45 46 47 48 49 50
337
ASUS43 KFSD 190410
RWRSD

WEATHER ROUNDUP FOR SOUTH DAKOTA
NATIONAL WEATHER SERVICE SIOUX FALLS SD
1100 PM CDT MON SEP 18 2017

NOTE: "FAIR" INDICATES FEW OR NO CLOUDS BELOW 12,000 FEET WITH NO
SIGNIFICANT WEATHER AND/OR OBSTRUCTIONS TO VISIBILITY.


SDZ001>005-009-010-012>017-190500-
NORTHWEST AND NORTH CENTRAL SOUTH DAKOTA

CITY           SKY/WX    TMP DP  RH WIND       PRES   REMARKS
BUFFALO          N/A     64  42  44 E15       29.62F
MOBRIDGE       CLEAR     63  45  51 E17       29.72F
$$

SDZ012>016-024>037-041>051-057-063-072>074-190500-
SOUTHWEST AND SOUTH CENTRAL SOUTH DAKOTA

CITY           SKY/WX    TMP DP  RH WIND       PRES   REMARKS
RAPID CTY ARPT CLEAR     61  37  41 S5        29.72F
PIERRE         CLEAR     65  56  72 SE13      29.72F
CUSTER         CLOUDY    53  33  46 MISG      29.84F
ELLSWORTH AFB  CLEAR     63  38  40 CALM      29.70F
PHILIP         CLOUDY    60  53  77 E7        29.71F
PINE RIDGE     PTCLDY    73  41  31 S15G26    29.75F
SPEARFISH      FAIR      70  36  28 S17       29.70F
WINNER         FAIR      67  60  78 S14       29.78S
$$

SDZ004>011-016>023-039-040-190500-
NORTHEAST SOUTH DAKOTA

CITY           SKY/WX    TMP DP  RH WIND       PRES   REMARKS
ABERDEEN       CLEAR     62  59  90 SE8       29.79S
WATERTOWN      CLEAR     60  60 100 SE7       29.84F
BROOKINGS      PTCLDY    62  60  93 SE12      29.86F
SISSETON         N/A     61  60  97 SE12      29.83S
$$

SDZ017-020-022-023-036>040-048>070-190500-
SOUTHEAST SOUTH DAKOTA

CITY           SKY/WX    TMP DP  RH WIND       PRES   REMARKS
SIOUX FALLS    CLEAR     67  66  97 S13       29.87S
HURON          PTCLDY    66  62  87 SE12      29.79F
CHAMBERLAIN    MOCLDY    65  63  96 E7        29.78S
MITCHELL       CLEAR     66  62  87 SE10      29.82S
YANKTON        CLEAR     65  64  97 SE7       29.86S
$$

ABBREVIATIONS USED IN REMARKS
   TC - TEMPERATURE IN CELSIUS
  WCI - WIND CHILL INDEX
   HX - HEAT INDEX
  VSB - VISIBILITY





USA.gov is the U.S. government's official web portal to all federal, state and local government web resources and services.